Weather History for MROC - February, 2015

Change the Weather History Date:

Saturday, February 28, 2015

  Actual Average Record
Temperature  
Mean Temperature 75 °F -  
Max Temperature 82 °F 83 °F - ()
Min Temperature 68 °F 64 °F - ()
Cooling Degree Days 10    
Growing Degree Days 25 (Base 50)    
Moisture  
Dew Point 57 °F    
Average Humidity 55    
Maximum Humidity 73    
Minimum Humidity 26    
Precipitation  
Precipitation 0.00 in 0.02 in - ()
Sea Level Pressure  
Sea Level Pressure 29.99 in    
Wind  
Wind Speed 13 mph ()    
Max Wind Speed 21 mph    
Max Gust Speed 34 mph    
Visibility 8.2 miles    
Events      
T = Trace of Precipitation, MM = Missing Value Source: Averaged Metar Reports

Daily Weather History Graph

Daily Weather History Graph

Search for Another Location

Airport or City:

Trip Planner

Search our weather history database for the weather conditions in past years. The results will help you decide how hot, cold, wet, or windy it might be!

Date:

Astronomy

Feb. 28, 2015 Rise Set
Actual Time 5:51 AM CST 5:47 PM CST
Civil Twilight 5:30 AM CST 6:08 PM CST
Nautical Twilight 5:05 AM CST 6:32 PM CST
Astronomical Twilight 4:41 AM CST 6:57 PM CST
Moon 1:58 PM CST (2/28) 1:59 AM CST (2/28)
Length of Visible Light 12h 37m
Length of Day
11h 55m
Waxing Gibbous, 79% of the Moon is Illuminated
Feb 28
Waxing Gibbous
Mar 5
Full
Mar 13
Last Quarter
Mar 20
New
Mar 27
First Quarter

Hourly Weather History & Observations

Time (CST) Temp. Heat Index Dew Point Humidity Pressure Visibility Wind Dir Wind Speed Gust Speed Precip Events Conditions
12:00 AM 70 °F - 60 °F 63% 29.84 in 12 mi East 12.7 mph - -  
12:00 AM 69.8 °F - 60.8 °F 73% 30.00 in - East 12.7 mph 24.2 mph N/A   Clear
1:00 AM 69.8 °F - 60.8 °F 73% 29.99 in - East 10.4 mph - N/A   Clear
2:00 AM 69.8 °F - 59.0 °F 68% 29.98 in - East 11.5 mph - N/A   Clear
3:00 AM 70 °F - 60 °F 62% 29.82 in 12 mi East 11.5 mph - -  
3:00 AM 69.8 °F - 59.0 °F 68% 29.97 in - East 11.5 mph 23.0 mph N/A   Clear
4:00 AM 69.8 °F - 59.0 °F 68% 29.98 in - East 13.8 mph 25.3 mph N/A   Clear
5:00 AM 69.8 °F - 60.8 °F 73% 30.00 in - East 13.8 mph 26.5 mph N/A   Clear
6:00 AM 69 °F - 60 °F 66% 29.89 in 12 mi East 11.5 mph - -   Scattered Clouds
6:00 AM 69.8 °F - 60.8 °F 73% 30.02 in 6.2 mi East 11.5 mph - N/A   Partly Cloudy
7:00 AM 71.6 °F - 60.8 °F 69% 30.04 in 6.2 mi ENE 11.5 mph - N/A   Scattered Clouds
8:00 AM 71.6 °F - 59.0 °F 64% 30.06 in 6.2 mi East 16.1 mph 31.1 mph N/A   Scattered Clouds
9:00 AM 76 °F - 57 °F 42% 29.94 in 12 mi East 20.7 mph - -   Partly Cloudy
9:00 AM 77.0 °F - 57.2 °F 50% 30.07 in 6.2 mi East 20.7 mph 34.5 mph N/A   Scattered Clouds
10:00 AM 78.8 °F - 57.2 °F 47% 30.08 in 6.2 mi East 16.1 mph 29.9 mph N/A   Scattered Clouds
11:00 AM 78.8 °F - 55.4 °F 44% 30.01 in 6.2 mi East 17.3 mph 29.9 mph N/A   Scattered Clouds
12:00 PM 81 °F - 52 °F 26% 29.89 in 12 mi East 16.1 mph - -   Partly Cloudy
12:00 PM 80.6 °F - 51.8 °F 37% 30.04 in 6.2 mi East 16.1 mph 27.6 mph N/A   Scattered Clouds
1:00 PM 80.6 °F 80.3 °F 53.6 °F 39% 30.03 in 6.2 mi ENE 16.1 mph 27.6 mph N/A   Partly Cloudy
2:00 PM 80.6 °F 80.5 °F 55.4 °F 42% 30.01 in 6.2 mi East 15.0 mph 26.5 mph N/A   Partly Cloudy
3:00 PM 79 °F - 53 °F 30% 29.86 in 12 mi East 16.1 mph - -   Scattered Clouds
3:00 PM 78.8 °F - 53.6 °F 42% 30.00 in 6.2 mi East 16.1 mph 27.6 mph N/A   Partly Cloudy
4:00 PM 78.8 °F - 50.0 °F 36% 30.00 in 6.2 mi East 15.0 mph 27.6 mph N/A   Partly Cloudy
5:00 PM 75.2 °F - 53.6 °F 47% 30.01 in 6.2 mi East 16.1 mph 27.6 mph N/A   Partly Cloudy
6:00 PM 72 °F - 54 °F 43% 29.94 in 12 mi East 13.8 mph - -   Scattered Clouds
6:00 PM 71.6 °F - 53.6 °F 53% 30.02 in 6.2 mi East 13.8 mph - N/A   Partly Cloudy
7:00 PM 71.6 °F - 55.4 °F 57% 30.03 in - East 12.7 mph - N/A   Clear
8:00 PM 71.6 °F - 55.4 °F 57% 30.04 in - East 15.0 mph 26.5 mph N/A   Clear
9:00 PM 71.6 °F - 57.2 °F 60% 30.05 in - East 15.0 mph 28.8 mph N/A   Clear
10:00 PM 69.8 °F - 57.2 °F 64% 30.05 in - East 15.0 mph - N/A   Clear
11:00 PM 69.8 °F - 57.2 °F 64% 30.03 in - East 18.4 mph 29.9 mph N/A   Clear